Weather History for La Crosse, WI

Change the Weather History Date:

Thursday, January 26, 2012

  Actual Average Record
Temperature  
Mean Temperature 33 °F 18 °F  
Max Temperature 38 °F 27 °F 54 °F (2002)
Min Temperature 27 °F 9 °F -25 °F (1963)
Degree Days  
Heating Degree Days 32 47  
Month to date heating degree days 1076 1242  
Since 1 July heating degree days 3514 4086  
Cooling Degree Days 0 0  
Month to date cooling degree days 0 0  
Year to date cooling degree days 0 0  
Moisture  
Dew Point 28 °F    
Average Humidity 88    
Maximum Humidity 100    
Minimum Humidity 75    
Precipitation  
Precipitation 0.00 in 0.04 in 0.98 in (1996)
Month to date precipitation 1.03 0.94  
Year to date precipitation 1.03 0.94  
Snow  
Snow 0.00 in 0.40 in 12.00 in (1996)
Month to date snowfall 11.9 8.8  
Since 1 July snowfall 16.9 24.4  
Snow Depth 6.00 in    
Sea Level Pressure  
Sea Level Pressure 29.79 in    
Wind  
Wind Speed 8 mph (South)    
Max Wind Speed 23 mph    
Max Gust Speed 28 mph    
Visibility 6 miles    
Events      
T = Trace of Precipitation, MM = Missing Value Source: NWS Daily Summary

Daily Weather History Graph

Daily Weather History Graph

Search for Another Location

Airport:

Trip Planner

Search our weather history database for the weather conditions in past years. The results will help you decide how hot, cold, wet, or windy it might be!

Date:

Astronomy

Jan. 26, 2012 Rise Set
Actual Time 7:28 AM CST 5:06 PM CST
Civil Twilight 6:57 AM CST 5:37 PM CST
Nautical Twilight 6:22 AM CST 6:12 PM CST
Astronomical Twilight 5:48 AM CST 6:46 PM CST
Moon 8:47 AM CST (1/26) 9:10 PM CST (1/26)
Length of Visible Light 10h 40m
Length of Day
9h 38m
Waxing Crescent, 12% of the Moon is Illuminated
Jan 26
Waxing Crescent
Jan 30
First Quarter
Feb 7
Full
Feb 14
Last Quarter
Feb 21
New

Hourly Weather History & Observations

Time (CST) Temp. Windchill Dew Point Humidity Pressure Visibility Wind Dir Wind Speed Gust Speed Precip Events Conditions
12:45 AM 28.4 °F 20.4 °F 24.8 °F 86% 29.94 in 5.0 mi SSE 8.1 mph - N/A   Overcast
12:53 AM 28.0 °F 18.6 °F 25.0 °F 88% 29.98 in 6.0 mi SSE 10.4 mph - N/A   Mostly Cloudy
1:00 AM 28.4 °F 19.1 °F 24.8 °F 86% 29.93 in 6.0 mi SSE 10.4 mph - N/A   Mostly Cloudy
1:38 AM 28.4 °F 19.7 °F 24.8 °F 86% 29.91 in 6.0 mi South 9.2 mph - N/A   Mostly Cloudy
1:53 AM 28.0 °F 18.1 °F 24.1 °F 85% 29.94 in 6.0 mi South 11.5 mph - N/A   Scattered Clouds
2:53 AM 28.0 °F 18.1 °F 24.1 °F 85% 29.95 in 5.0 mi South 11.5 mph - N/A   Mostly Cloudy
3:53 AM 28.0 °F 19.3 °F 25.0 °F 88% 29.91 in 5.0 mi South 9.2 mph - N/A   Overcast
4:53 AM 28.9 °F 18.6 °F 26.1 °F 89% 29.91 in 4.0 mi South 12.7 mph - N/A   Overcast
5:53 AM 30.0 °F 21.7 °F 28.0 °F 92% 29.87 in 3.0 mi South 9.2 mph - N/A   Overcast
6:53 AM 30.9 °F 23.5 °F 30.0 °F 96% 29.84 in 2.0 mi SSE 8.1 mph - N/A   Overcast
7:42 AM 30.2 °F 21.9 °F 30.2 °F 100% 29.79 in 1.5 mi South 9.2 mph - N/A   Overcast
7:53 AM 30.9 °F 23.5 °F 30.0 °F 96% 29.83 in 1.2 mi SSE 8.1 mph - N/A   Overcast
8:44 AM 32.0 °F 24.8 °F 30.2 °F 93% 29.78 in 1.8 mi SSE 8.1 mph - N/A   Overcast
8:53 AM 32.0 °F 26.4 °F 30.9 °F 96% 29.83 in 1.8 mi South 5.8 mph - N/A   Overcast
9:15 AM 32.0 °F 26.4 °F 30.2 °F 93% 29.78 in 1.8 mi SSE 5.8 mph - N/A   Overcast
9:25 AM 32.0 °F 24.8 °F 30.2 °F 93% 29.78 in 2.0 mi South 8.1 mph - N/A   Overcast
9:53 AM 33.1 °F 26.9 °F 30.9 °F 92% 29.80 in 2.5 mi SSE 6.9 mph - N/A   Overcast
10:18 AM 33.8 °F 27.7 °F 30.2 °F 87% 29.77 in 3.0 mi South 6.9 mph - N/A   Overcast
10:53 AM 34.0 °F 26.6 °F 30.9 °F 89% 29.78 in 3.0 mi SSE 9.2 mph - N/A   Mostly Cloudy
11:53 AM 35.1 °F 30.1 °F 30.9 °F 85% 29.75 in 4.0 mi South 5.8 mph - N/A   Mostly Cloudy
12:03 PM 35.6 °F 31.7 °F 30.2 °F 81% 29.71 in 4.0 mi South 4.6 mph - N/A   Partly Cloudy
12:53 PM 37.0 °F 32.4 °F 30.0 °F 76% 29.70 in 5.0 mi South 5.8 mph - N/A   Haze
1:53 PM 37.0 °F 30.4 °F 30.0 °F 76% 29.69 in 5.0 mi South 9.2 mph - N/A   Haze
2:53 PM 36.0 °F 28.0 °F 30.0 °F 79% 29.71 in 5.0 mi South 11.5 mph - N/A   Haze
3:53 PM 36.0 °F 28.5 °F 28.9 °F 76% 29.72 in 6.0 mi SSW 10.4 mph - N/A   Haze
4:53 PM 35.6 °F 29.9 °F 28.4 °F 75% 29.69 in 6.0 mi SSW 6.9 mph - N/A   Haze
5:23 PM 35.6 °F 31.7 °F 28.4 °F 75% 29.69 in 6.0 mi SW 4.6 mph - N/A   Haze
5:53 PM 35.1 °F 31.0 °F 28.9 °F 78% 29.72 in 8.0 mi SSW 4.6 mph - N/A   Overcast
6:22 PM 33.8 °F 30.8 °F 28.4 °F 81% 29.69 in 8.0 mi West 3.5 mph - N/A   Overcast
6:53 PM 34.0 °F - 28.0 °F 79% 29.72 in 10.0 mi Calm Calm - N/A   Overcast
7:45 PM 35.6 °F 27.5 °F 28.4 °F 75% 29.69 in 10.0 mi NW 11.5 mph - N/A   Overcast
7:53 PM 36.0 °F 27.5 °F 28.0 °F 73% 29.73 in 10.0 mi NNW 12.7 mph - N/A   Overcast
8:25 PM 35.6 °F 25.9 °F 26.6 °F 70% 29.70 in 10.0 mi NNW 16.1 mph - N/A   Overcast
8:53 PM 34.0 °F 25.5 °F 26.1 °F 73% 29.74 in 10.0 mi NNW 11.5 mph - N/A   Mostly Cloudy
9:53 PM 30.9 °F 25.2 °F 24.1 °F 76% 29.76 in 10.0 mi NNW 5.8 mph - N/A   Partly Cloudy
10:53 PM 30.0 °F 25.2 °F 24.1 °F 79% 29.78 in 10.0 mi North 4.6 mph - N/A   Clear
11:53 PM 28.9 °F 22.8 °F 23.0 °F 78% 29.78 in 10.0 mi NW 5.8 mph - N/A   Clear